Location: The Jewett Observatory
(46.7288°N, 117.1525°W)
Time: 18:55:03
(UTC-07:00)

Amateur Radio Satellites - All Passes

Search period start: 19 September 2014 18:25
Search period end: 20 September 2014 18:25
Location: The Jewett Observatory, 46.7288°N, 117.1525°W

Satellite Date Start Highest point End Downlink Frequencies (MHz)
Time Altitude Azimuth
Hamsat 19 Sep 18:26:30 18:30:34 38° 263° (W) 18:34:40 145.90 MHz
MaSat-1 19 Sep 18:51:33 18:54:10 18° 257° (WSW) 18:56:32 437.345 MHz
STRAND 1 19 Sep 18:59:13 19:03:42 30° 95° (E) 19:08:09 ?
Sapphire 19 Sep 19:04:58 19:08:10 16° 29° (NNE) 19:11:21 437.095 MHz 1200 baud AX-25 AFSK
JAS-2 19 Sep 19:12:19 19:15:52 18° 270° (W) 19:19:24 435.800 - 435.900 CW/SSB, 435.910 FM
KITSAT 1 19 Sep 19:27:06 19:34:55 56° 116° (ESE) 19:42:46 435.175 FM
PCSat 19 Sep 19:31:39 19:35:47 21° 36° (NE) 19:39:54 145.825 MHz
AO-40 19 Sep 19:32:31 01:05:13 34° 184° (S) 06:29:29 Beacon 2401.320
SO-67 19 Sep 19:53:53 19:56:38 22° 266° (W) 19:59:24 435.3500 MHz FM
HO-68 19 Sep 19:58:42 20:05:23 46° 63° (ENE) 20:12:06 435.675 MHz FM
OPAL 19 Sep 19:59:32 20:01:05 11° 311° (NW) 20:02:38 ?
Oscar 11 19 Sep 20:03:27 20:04:24 11° 57° (ENE) 20:05:21 145.825 FM, Beacon 2401.500 USB
Saudisat 1A 19 Sep 20:06:58 20:09:05 13° 335° (NNW) 20:11:13 436.775 MHz
UKube-1 19 Sep 20:17:48 20:20:58 20° 62° (ENE) 20:24:09 145.840 MHz, 145.915 MHz
STRAND 1 19 Sep 20:38:12 20:42:59 40° 293° (WNW) 20:47:45 ?
Sapphire 19 Sep 20:47:28 20:52:50 55° 52° (NE) 20:58:09 437.095 MHz 1200 baud AX-25 AFSK
PCSat 19 Sep 21:14:29 21:19:58 90° 57° (ENE) 21:25:23 145.825 MHz
KITSAT 1 19 Sep 21:22:54 21:30:35 45° 318° (NW) 21:38:18 435.175 FM
FUNcube-1 19 Sep 21:26:25 21:30:15 29° 66° (ENE) 21:34:10 145.950 - 145.970 MHz USB
Oscar 11 19 Sep 21:35:28 21:39:50 81° 75° (ENE) 21:44:14 145.825 FM, Beacon 2401.500 USB
HO-68 19 Sep 21:46:30 21:53:09 41° 262° (W) 21:59:52 435.675 MHz FM
UKube-1 19 Sep 21:52:41 21:56:52 47° 260° (W) 22:01:04 145.840 MHz, 145.915 MHz
SO-50 19 Sep 22:19:07 22:23:20 41° 119° (ESE) 22:27:39 436.795 FM
Sapphire 19 Sep 22:31:29 22:35:56 26° 251° (WSW) 22:40:22 437.095 MHz 1200 baud AX-25 AFSK
PCSat 19 Sep 22:59:40 23:02:36 15° 256° (WSW) 23:05:31 145.825 MHz
FUNcube-1 19 Sep 23:02:35 23:06:34 32° 265° (W) 23:10:39 145.950 - 145.970 MHz USB
Oscar 11 19 Sep 23:15:17 23:16:36 11° 273° (W) 23:17:55 145.825 FM, Beacon 2401.500 USB
KITSAT 1 19 Sep 23:22:28 23:28:20 21° 346° (NNW) 23:34:13 435.175 FM
Oscar 10/S400 19 Sep 23:24:38 00:08:09 47° 201° (SSW) 07:00:22 145.825 - 145.975 CW/USB, Beacon 145.810 USB
Saudisat 1A 19 Sep 23:30:22 23:32:23 13° 25° (NNE) 23:34:25 436.775 MHz
UOSAT-12 19 Sep 23:55:29 23:59:39 34° 117° (ESE) 00:03:54 437.025 FM, 437.400 FM
SO-50 19 Sep 23:59:54 00:03:59 32° 319° (NW) 00:08:12 436.795 FM
Saudisat 1A 20 Sep 01:08:46 01:13:03 46° 46° (NE) 01:17:19 436.775 MHz
KITSAT 1 20 Sep 01:21:10 01:27:08 22° 16° (NNE) 01:33:05 435.175 FM
UOSAT-12 20 Sep 01:35:22 01:39:45 39° 316° (NW) 01:44:13 437.025 FM, 437.400 FM
Uribyol 2 20 Sep 01:37:05 01:39:01 12° 87° (E) 01:40:57 436.500 FM
SO-50 20 Sep 01:44:34 01:46:01 11° 342° (NNW) 01:47:28 436.795 FM
Oscar 19 20 Sep 01:47:05 01:51:41 32° 95° (E) 01:56:14 437.125 CW, 437.150 USB
ISS 20 Sep 01:48:31 01:49:14 11° 132° (SE) 01:49:56 145.800 FM
AO-27 20 Sep 02:06:29 02:10:27 22° 92° (E) 02:14:24 436.795 MHz FM
Oscar 16 20 Sep 02:25:38 02:30:50 70° 103° (ESE) 02:35:58 437.025 USB, Beacon 2401.1428
RS-15 20 Sep 02:27:57 02:33:48 16° 96° (E) 02:39:35 29.354 - 29.394 USB, Beacon 29.352 USB
JAS-1B 20 Sep 02:34:02 02:39:30 41° 97° (E) 02:44:50 435.800 - 435.900 CW/SSB
AO-Echo 20 Sep 02:35:15 02:39:51 43° 99° (E) 02:44:35 ?
Saudisat 1A 20 Sep 02:48:48 02:52:24 25° 245° (WSW) 02:56:00 436.775 MHz
Gurwin Techsat 1B 20 Sep 03:01:04 03:05:50 32° 95° (E) 03:10:33 435.225 FM
ITAMSAT 1 20 Sep 03:09:55 03:15:10 74° 103° (ESE) 03:20:23 435.822 SSB
Uribyol 2 20 Sep 03:14:01 03:19:17 85° 105° (ESE) 03:24:31 436.500 FM
KITSAT 1 20 Sep 03:16:59 03:24:47 48° 43° (NE) 03:32:31 435.175 FM
UOSAT-12 20 Sep 03:19:08 03:21:13 13° 339° (NNW) 03:23:19 437.025 FM, 437.400 FM
ISS 20 Sep 03:22:04 03:25:22 62° 149° (SSE) 03:28:40 145.800 FM
Oscar 19 20 Sep 03:26:19 03:31:05 38° 294° (WNW) 03:35:48 437.125 CW, 437.150 USB
AO-7 20 Sep 03:26:59 03:31:02 14° 85° (E) 03:35:04 29.400 - 29.500 MHz
TMSAT-1 20 Sep 03:37:34 03:42:44 50° 99° (E) 03:47:52 436.925 FM
AO-27 20 Sep 03:45:13 03:50:19 56° 290° (WNW) 03:55:24 436.795 MHz FM
Uosat F 20 Sep 03:48:25 03:49:44 11° 87° (E) 03:51:02 435.120 FM
OPAL 20 Sep 03:57:13 04:02:11 48° 66° (ENE) 04:07:12 ?
Oscar 16 20 Sep 04:06:06 04:09:39 19° 301° (WNW) 04:13:12 437.025 USB, Beacon 2401.1428
AO-Echo 20 Sep 04:14:29 04:18:27 26° 296° (WNW) 04:22:30 ?
JAS-1B 20 Sep 04:25:04 04:30:07 31° 299° (WNW) 04:35:01 435.800 - 435.900 CW/SSB
RS-15 20 Sep 04:33:01 04:43:53 68° 119° (ESE) 04:54:40 29.354 - 29.394 USB, Beacon 29.352 USB
Gurwin Techsat 1B 20 Sep 04:40:57 04:45:51 38° 294° (WNW) 04:50:43 435.225 FM
ITAMSAT 1 20 Sep 04:50:36 04:54:05 18° 302° (WNW) 04:57:34 435.822 SSB
Uribyol 2 20 Sep 04:54:56 04:58:05 16° 303° (WNW) 05:01:14 436.500 FM
ISS 20 Sep 04:59:03 05:02:13 40° 348° (NNW) 05:05:24 145.800 FM
SO-50 20 Sep 05:07:47 05:11:18 20° 32° (NNE) 05:14:51 436.795 FM
KITSAT 1 20 Sep 05:12:34 05:20:18 52° 246° (WSW) 05:28:00 435.175 FM
AO-7 20 Sep 05:17:05 05:25:23 69° 105° (ESE) 05:33:37 29.400 - 29.500 MHz
TMSAT-1 20 Sep 05:18:02 05:22:23 26° 298° (WNW) 05:26:42 436.925 FM
Uosat F 20 Sep 05:24:14 05:29:18 83° 105° (ESE) 05:34:20 435.120 FM
OPAL 20 Sep 05:36:59 05:41:16 26° 264° (W) 05:45:37 ?
Hamsat 20 Sep 06:09:23 06:13:11 30° 95° (E) 06:16:54 145.90 MHz
JAS-2 20 Sep 06:14:05 06:19:48 45° 99° (E) 06:26:12 435.800 - 435.900 CW/SSB, 435.910 FM
STRAND 1 20 Sep 06:17:51 06:22:49 57° 70° (ENE) 06:27:49 ?
ISS 20 Sep 06:36:17 06:39:24 36° 8° (N) 06:42:32 145.800 FM
UOSAT-12 20 Sep 06:42:35 06:45:44 17° 29° (NNE) 06:48:51 437.025 FM, 437.400 FM
RS-15 20 Sep 06:46:24 06:56:52 47° 325° (NW) 07:07:24 29.354 - 29.394 USB, Beacon 29.352 USB
SO-50 20 Sep 06:47:44 06:52:34 85° 52° (NE) 06:57:26 436.795 FM
Uosat F 20 Sep 07:04:29 07:07:27 16° 303° (WNW) 07:10:24 435.120 FM
MaSat-1 20 Sep 07:04:54 07:06:36 12° 100° (E) 07:08:18 437.345 MHz
AO-7 20 Sep 07:10:31 07:17:39 34° 306° (NW) 07:24:46 29.400 - 29.500 MHz
SO-67 20 Sep 07:14:24 07:17:02 20° 93° (E) 07:19:39 435.3500 MHz FM
Hamsat 20 Sep 07:45:26 07:49:05 28° 293° (WNW) 07:52:41 145.90 MHz
STRAND 1 20 Sep 07:58:37 08:02:22 21° 268° (W) 08:06:09 ?
JAS-2 20 Sep 07:59:31 08:04:48 36° 294° (WNW) 08:10:41 435.800 - 435.900 CW/SSB, 435.910 FM
ISS 20 Sep 08:13:01 08:16:21 82° 208° (SSW) 08:19:41 145.800 FM
UOSAT-12 20 Sep 08:22:01 08:26:46 68° 50° (NE) 08:31:26 437.025 FM, 437.400 FM
SO-50 20 Sep 08:29:50 08:32:31 15° 251° (WSW) 08:35:12 436.795 FM
MaSat-1 20 Sep 08:37:35 08:42:37 79° 117° (ESE) 08:47:30 437.345 MHz
SO-67 20 Sep 08:47:06 08:50:05 27° 291° (WNW) 08:53:03 435.3500 MHz FM
RS-15 20 Sep 09:03:21 09:12:39 30° 358° (N) 09:22:06 29.354 - 29.394 USB, Beacon 29.352 USB
HO-68 20 Sep 09:10:31 09:16:58 35° 96° (E) 09:23:24 435.675 MHz FM
Oscar 11 20 Sep 09:22:16 09:24:02 12° 88° (E) 09:25:47 145.825 FM, Beacon 2401.500 USB
UKube-1 20 Sep 09:38:24 09:41:53 23° 94° (E) 09:45:22 145.840 MHz, 145.915 MHz
ISS 20 Sep 09:50:42 09:52:37 15° 225° (SW) 09:54:32 145.800 FM
UOSAT-12 20 Sep 10:03:12 10:06:26 18° 249° (WSW) 10:09:37 437.025 FM, 437.400 FM
MaSat-1 20 Sep 10:16:13 10:19:53 20° 315° (NW) 10:23:27 437.345 MHz
FUNcube-1 20 Sep 10:48:21 10:52:45 41° 97° (E) 10:57:05 145.950 - 145.970 MHz USB
Oscar 11 20 Sep 10:56:23 11:00:45 74° 286° (WNW) 11:05:04 145.825 FM, Beacon 2401.500 USB
HO-68 20 Sep 10:58:00 11:04:56 54° 295° (WNW) 11:11:51 435.675 MHz FM
UKube-1 20 Sep 11:14:10 11:18:13 39° 292° (WNW) 11:22:16 145.840 MHz, 145.915 MHz
RS-15 20 Sep 11:18:13 11:28:38 44° 32° (NNE) 11:39:20 29.354 - 29.394 USB, Beacon 29.352 USB
Oscar 19 20 Sep 11:32:30 11:33:22 10° 52° (NE) 11:34:13 437.125 CW, 437.150 USB
Sapphire 20 Sep 11:33:00 11:37:26 27° 109° (ESE) 11:41:54 437.095 MHz 1200 baud AX-25 AFSK
JAS-1B 20 Sep 11:35:59 11:39:00 13° 49° (NE) 11:41:50 435.800 - 435.900 CW/SSB
PCSat 20 Sep 11:59:02 12:04:10 46° 115° (ESE) 12:09:21 145.825 MHz
Oscar 16 20 Sep 12:07:58 12:11:48 21° 60° (ENE) 12:15:38 437.025 USB, Beacon 2401.1428
AO-Echo 20 Sep 12:16:47 12:17:58 11° 55° (NE) 12:19:08 ?
FUNcube-1 20 Sep 12:25:09 12:28:56 25° 295° (WNW) 12:32:40 145.950 - 145.970 MHz USB
HO-68 20 Sep 12:47:57 12:51:06 14° 317° (NW) 12:54:16 435.675 MHz FM
Gurwin Techsat 1B 20 Sep 12:49:24 12:51:09 12° 53° (NE) 12:52:54 435.225 FM
ITAMSAT 1 20 Sep 12:53:04 12:57:03 23° 61° (ENE) 13:01:03 435.822 SSB
Uribyol 2 20 Sep 12:56:45 13:00:57 26° 62° (ENE) 13:05:11 436.500 FM
Oscar 19 20 Sep 13:06:34 13:11:40 61° 71° (ENE) 13:16:48 437.125 CW, 437.150 USB
Sapphire 20 Sep 13:15:15 13:20:33 54° 309° (NW) 13:25:54 437.095 MHz 1200 baud AX-25 AFSK
JAS-1B 20 Sep 13:20:23 13:28:26 56° 68° (ENE) 13:35:11 435.800 - 435.900 CW/SSB
TMSAT-1 20 Sep 13:23:59 13:27:17 17° 57° (ENE) 13:30:34 436.925 FM
AO-27 20 Sep 13:27:12 13:32:04 43° 68° (ENE) 13:36:58 436.795 MHz FM
RS-15 20 Sep 13:30:56 13:41:59 77° 239° (WSW) 13:53:29 29.354 - 29.394 USB, Beacon 29.352 USB
PCSat 20 Sep 13:42:48 13:47:44 35° 315° (NW) 13:52:42 145.825 MHz
Oscar 16 20 Sep 13:45:34 13:50:42 62° 258° (WSW) 13:55:53 437.025 USB, Beacon 2401.1428
AO-Echo 20 Sep 13:51:13 13:55:56 75° 74° (ENE) 14:00:38 ?
Gurwin Techsat 1B 20 Sep 14:24:53 14:30:08 66° 72° (ENE) 14:35:25 435.225 FM
AO-7 20 Sep 14:28:19 14:35:15 31° 52° (NE) 14:42:10 29.400 - 29.500 MHz
ITAMSAT 1 20 Sep 14:31:07 14:36:10 56° 259° (W) 14:41:17 435.822 SSB
Uribyol 2 20 Sep 14:35:10 14:40:09 49° 260° (W) 14:45:12 436.500 FM
Oscar 19 20 Sep 14:47:41 14:51:25 20° 269° (W) 14:55:12 437.125 CW, 437.150 USB
TMSAT-1 20 Sep 15:01:14 15:06:32 83° 256° (WSW) 15:11:52 436.925 FM
Sapphire 20 Sep 15:02:05 15:05:14 15° 331° (NNW) 15:08:23 437.095 MHz 1200 baud AX-25 AFSK
Uosat F 20 Sep 15:03:11 15:07:02 23° 61° (ENE) 15:10:53 435.120 FM
AO-27 20 Sep 15:07:22 15:11:45 28° 266° (W) 15:16:10 436.795 MHz FM
JAS-1B 20 Sep 15:11:42 15:19:12 35° 264° (W) 15:25:40 435.800 - 435.900 CW/SSB
PCSat 20 Sep 15:31:01 15:32:53 12° 339° (NNW) 15:34:44 145.825 MHz
AO-Echo 20 Sep 15:33:01 15:35:17 13° 271° (W) 15:37:33 ?
RS-15 20 Sep 15:45:09 15:52:29 21° 261° (W) 16:00:01 29.354 - 29.394 USB, Beacon 29.352 USB
Gurwin Techsat 1B 20 Sep 16:06:57 16:10:36 19° 270° (W) 16:14:15 435.225 FM
AO-7 20 Sep 16:19:04 16:27:22 75° 253° (WSW) 16:35:42 29.400 - 29.500 MHz
JAS-2 20 Sep 16:31:33 16:35:32 23° 60° (ENE) 16:39:33 435.800 - 435.900 CW/SSB, 435.910 FM
Uosat F 20 Sep 16:40:36 16:45:28 53° 259° (W) 16:50:24 435.120 FM
TMSAT-1 20 Sep 16:45:27 16:47:17 12° 274° (W) 16:49:07 436.925 FM
MaSat-1 20 Sep 16:51:50 16:55:30 32° 51° (NE) 16:58:41 437.345 MHz
Saudisat 1A 20 Sep 16:57:06 17:01:14 41° 119° (ESE) 17:05:24 436.775 MHz
Hamsat 20 Sep 17:05:20 17:09:13 32° 68° (ENE) 17:13:06 145.90 MHz
OPAL 20 Sep 17:42:51 17:48:02 66° 105° (ESE) 17:53:06 ?
SO-67 20 Sep 17:51:29 17:52:53 12° 63° (ENE) 17:54:17 435.3500 MHz FM
KITSAT 1 20 Sep 17:51:53 17:56:48 18° 100° (E) 18:01:43 435.175 FM
